Torna al catalogo

THOR ABLESTAR DEB

AttivoLEO
NORAD 262·DEBRIS·🇺🇸 United States

Lanciato Jun 29, 1961 da Cape Canaveral Space Force Station

Loading…

Prossimi Passaggi (prossime 24 ore)

TLE

AggiornatoSource: Space-Track

Epoca: Sep 14, 2026, 12:35 UTC

1 00262U 61015CJ  26257.52469041  .00001278  00000-0  27919-3 0  9995
2 00262  66.4610 177.3210 0054510  17.0114 343.2808 14.60474425371562

Traccia THOR ABLESTAR DEB in tempo reale con AllMySat

Download on the App Store